WB6TTB Weather Reports


Display with metric or nautical units.
time (UTC)temp
F
wind
direction
speed
MPH
gust
MPH
rain 1hr
in
rain 24hr
in
rain mn
in
humidity
%
barometer
mb
20260904095404 55 0 0.0 0.0 0.00 0.04 0.00 99 1011.6
20260904094804 55 0 0.0 0.0 0.00 0.04 0.00 99 1011.5
20260904094203 55 0 0.0 0.0 0.00 0.04 0.00 99 1011.6
20260904093603 56 0 0.0 0.0 0.00 0.04 0.00 99 1011.5
20260904093003 56 0 0.0 0.0 0.00 0.04 0.00 99 1011.4
20260904092403 56 0 0.0 0.0 0.00 0.04 0.00 99 1011.5
20260904091803 56 0 0.0 0.0 0.00 0.04 0.00 99 1011.5
20260904091203 56 0 0.0 0.0 0.00 0.04 0.00 99 1011.4
20260904090603 56 0 0.0 0.0 0.00 0.04 0.00 99 1011.5
20260904090003 56 0 0.0 0.0 0.00 0.04 0.00 99 1011.5
20260904085403 57 0 0.0 0.0 0.00 0.04 0.00 99 1011.4
20260904084803 57 0 0.0 0.0 0.00 0.04 0.00 99 1011.4
20260904084203 57 272 0.0 2.0 0.00 0.04 0.00 99 1011.4
20260904083603 57 272 0.0 2.0 0.00 0.04 0.00 99 1011.5
20260904083003 57 272 0.0 2.0 0.00 0.04 0.00 99 1011.5
20260904082403 57 272 1.0 3.0 0.00 0.04 0.00 99 1011.5
20260904081804 57 272 1.0 2.0 0.00 0.04 0.00 100 1011.4
20260904081204 57 272 0.0 2.0 0.00 0.04 0.00 99 1011.3
20260904080604 57 272 1.0 2.0 0.00 0.04 0.00 99 1011.3
20260904080004 58 272 1.0 2.0 0.00 0.04 0.00 99 1011.3
20260904075403 57 272 0.0 1.0 0.00 0.04 0.00 99 1011.3
20260904074803 58 0 0.0 1.0 0.00 0.04 0.00 99 1011.3
20260904074203 58 0 0.0 0.0 0.00 0.04 0.00 99 1011.3
20260904073603 58 0 0.0 0.0 0.00 0.04 0.00 100 1011.3
20260904073003 58 272 0.0 1.0 0.00 0.04 0.00 100 1011.2
20260904072403 58 272 0.0 3.0 0.00 0.04 0.00 100 1011.3
20260904071803 58 272 0.0 3.0 0.00 0.04 0.00 100 1011.3
20260904071203 58 272 0.0 2.0 0.00 0.04 0.00 99 1011.3
20260904070603 58 272 0.0 2.0 0.00 0.04 0.00 99 1011.3
20260904070003 58 272 0.0 2.0 0.00 0.04 0.00 99 1011.3
20260904065403 58 272 1.0 3.0 0.00 0.04 0.04 99 1011.2
20260904064803 58 273 1.0 3.0 0.00 0.04 0.04 99 1011.3
20260904064203 58 273 1.0 3.0 0.00 0.04 0.04 100 1011.3
20260904063603 59 273 1.0 3.0 0.00 0.04 0.04 100 1011.2
20260904063003 59 273 0.0 1.0 0.00 0.04 0.04 100 1011.2
20260904062403 59 273 0.0 1.0 0.00 0.04 0.04 99 1011.2
20260904061803 59 273 0.0 2.0 0.00 0.04 0.04 99 1011.3
20260904061203 59 273 1.0 2.0 0.00 0.04 0.04 99 1011.3
20260904060603 59 0 0.0 0.0 0.00 0.04 0.04 100 1011.2
20260904060004 59 273 0.0 1.0 0.00 0.04 0.04 100 1011.1
20260904055404 59 273 0.0 1.0 0.00 0.04 0.04 100 1011.2
20260904054804 60 273 1.0 3.0 0.00 0.04 0.04 100 1011.3
20260904054204 60 273 2.0 3.0 0.00 0.04 0.04 100 1011.4
20260904053604 60 273 2.0 3.0 0.00 0.04 0.04 100 1011.4
20260904053003 59 273 1.0 3.0 0.00 0.04 0.04 100 1011.4
20260904052403 59 273 0.0 2.0 0.00 0.04 0.04 99 1011.6
20260904051803 59 273 0.0 2.0 0.00 0.04 0.04 99 1011.6
20260904051203 59 273 0.0 1.0 0.00 0.04 0.04 99 1011.7
20260904050603 59 0 0.0 0.0 0.00 0.04 0.04 99 1011.6
20260904050003 59 0 0.0 0.0 0.00 0.04 0.04 100 1011.7
20260904045403 59 0 0.0 0.0 0.00 0.04 0.04 100 1011.7
20260904044803 59 0 0.0 0.0 0.00 0.04 0.04 100 1011.7
20260904044203 59 0 0.0 0.0 0.00 0.04 0.04 99 1011.7
20260904043603 59 273 0.0 1.0 0.00 0.04 0.04 99 1011.8
20260904043003 59 273 0.0 1.0 0.00 0.04 0.04 99 1011.7
20260904042403 59 0 0.0 0.0 0.00 0.04 0.04 99 1011.8
20260904041803 59 0 0.0 0.0 0.00 0.04 0.04 99 1011.6
20260904041203 59 0 0.0 0.0 0.00 0.04 0.04 99 1011.5
20260904040603 60 0 0.0 0.0 0.00 0.04 0.04 100 1011.5
20260904040003 60 0 0.0 0.0 0.00 0.04 0.04 100 1011.5
20260904035403 60 0 0.0 0.0 0.00 0.04 0.04 99 1011.4
20260904034803 60 0 0.0 0.0 0.00 0.04 0.04 100 1011.4
20260904034203 60 0 0.0 0.0 0.00 0.04 0.04 99 1011.3
20260904033604 60 0 0.0 0.0 0.00 0.04 0.04 99 1011.3
20260904033004 60 0 0.0 0.0 0.00 0.04 0.04 99 1011.2
20260904032404 60 0 0.0 0.0 0.00 0.04 0.04 99 1011.2
20260904031804 60 0 0.0 0.0 0.00 0.04 0.04 99 1011.0
20260904031204 60 0 0.0 0.0 0.00 0.04 0.04 99 1011.0
20260904030603 60 0 0.0 0.0 0.00 0.04 0.04 99 1010.9
20260904030004 60 273 0.0 1.0 0.00 0.04 0.04 99 1010.9
20260904025403 60 273 0.0 1.0 0.00 0.04 0.04 99 1011.0
20260904024803 61 273 0.0 1.0 0.00 0.04 0.04 99 1011.1
20260904024203 61 273 0.0 1.0 0.00 0.04 0.04 100 1010.9
20260904023604 61 273 0.0 2.0 0.00 0.04 0.04 100 1011.0
20260904023003 61 273 0.0 2.0 0.00 0.04 0.04 100 1011.1
20260904022403 61 273 0.0 2.0 0.00 0.04 0.04 100 1011.2
20260904021803 61 273 0.0 1.0 0.00 0.04 0.04 100 1011.2
20260904021203 61 0 0.0 0.0 0.01 0.04 0.04 100 1011.2
20260904020003 61 0 0.0 0.0 0.01 0.04 0.04 100 1011.2
20260904015403 61 0 0.0 0.0 0.01 0.04 0.04 100 1011.3
20260904014803 61 273 0.0 6.0 0.01 0.04 0.04 100 1011.4
20260904014203 61 273 2.0 6.0 0.01 0.04 0.04 100 1011.3
20260904013603 61 274 3.0 9.0 0.03 0.04 0.04 99 1011.3
20260904013003 61 274 4.0 9.0 0.03 0.04 0.04 99 1011.3
20260904012403 61 272 6.0 9.0 0.03 0.04 0.04 99 1011.2
20260904011804 61 271 7.0 15.0 0.03 0.04 0.04 99 1011.2
20260904011204 61 270 9.0 15.0 0.01 0.03 0.03 99 1011.2
20260904010604 61 269 10.0 16.0 0.01 0.03 0.03 99 1011.3
20260904010004 61 269 10.0 15.0 0.01 0.03 0.03 99 1011.2
20260904005403 61 266 10.0 15.0 0.01 0.03 0.03 99 1011.3
20260904004804 61 266 10.0 15.0 0.03 0.03 0.03 99 1011.4
20260904004203 61 267 10.0 19.0 0.03 0.03 0.03 99 1011.3
20260904003603 62 268 11.0 19.0 0.01 0.01 0.01 99 1011.3
20260904003003 62 267 9.0 17.0 0.01 0.01 0.01 99 1011.3
20260904002403 62 269 9.0 17.0 0.01 0.01 0.01 99 1011.3
20260904001803 62 270 10.0 17.0 0.01 0.01 0.01 99 1011.3
20260904001203 62 270 10.0 16.0 0.01 0.01 0.01 99 1011.3
20260904000603 62 269 10.0 16.0 0.01 0.01 0.01 99 1011.3
20260904000003 62 270 9.0 15.0 0.01 0.01 0.01 99 1011.5
20260903235403 62 270 9.0 17.0 0.01 0.01 0.01 98 1011.5
20260903234803 62 269 9.0 17.0 0.00 0.00 0.00 98 1011.5
20260903234203 62 269 9.0 13.0 0.00 0.00 0.00 98 1011.6
20260903233603 62 271 9.0 16.0 0.00 0.00 0.00 98 1011.7
20260903233003 62 272 8.0 16.0 0.00 0.00 0.00 98 1011.8
20260903232403 62 270 7.0 13.0 0.00 0.00 0.00 98 1011.8
20260903231803 62 269 8.0 16.0 0.00 0.00 0.00 98 1011.9
20260903231203 62 269 9.0 16.0 0.00 0.00 0.00 98 1012.0
20260903230604 62 269 10.0 18.0 0.00 0.00 0.00 98 1012.1
20260903230004 62 268 11.0 16.0 0.00 0.00 0.00 98 1012.2
20260903225404 62 267 11.0 16.0 0.00 0.00 0.00 98 1012.3
20260903224804 62 268 9.0 16.0 0.00 0.00 0.00 98 1012.3
20260903224204 63 270 9.0 19.0 0.00 0.00 0.00 98 1012.4
20260903223603 62 271 9.0 19.0 0.00 0.00 0.00 98 1012.4
20260903223003 62 272 9.0 16.0 0.00 0.00 0.00 98 1012.4
20260903222403 62 269 10.0 18.0 0.00 0.00 0.00 98 1012.4
20260903221804 62 268 9.0 17.0 0.00 0.00 0.00 98 1012.6
20260903221203 62 271 9.0 17.0 0.00 0.00 0.00 98 1012.7
20260903220603 62 271 8.0 14.0 0.00 0.00 0.00 98 1012.7
20260903220004 62 269 8.0 13.0 0.00 0.00 0.00 98 1012.7
20260903215403 62 268 8.0 13.0 0.00 0.00 0.00 97 1012.8
20260903214803 62 268 8.0 14.0 0.00 0.00 0.00 97 1012.8
20260903214203 62 269 8.0 16.0 0.00 0.00 0.00 97 1012.8
20260903213603 62 270 9.0 16.0 0.00 0.00 0.00 97 1012.8
20260903213003 62 271 9.0 16.0 0.00 0.00 0.00 96 1012.8
20260903212403 62 272 8.0 15.0 0.00 0.00 0.00 96 1012.8
20260903211803 62 273 8.0 15.0 0.00 0.00 0.00 96 1013.0
20260903211203 62 273 8.0 16.0 0.00 0.00 0.00 95 1013.1
20260903210603 63 272 6.0 14.0 0.00 0.00 0.00 94 1013.1
20260903210003 63 272 7.0 14.0 0.00 0.00 0.00 94 1013.2
20260903205403 63 269 9.0 18.0 0.00 0.00 0.00 94 1013.1
20260903204804 63 269 9.0 18.0 0.00 0.00 0.00 93 1013.1
20260903204204 63 268 10.0 17.0 0.00 0.00 0.00 93 1013.1
20260903203604 63 269 10.0 17.0 0.00 0.00 0.00 93 1013.1
20260903203004 63 270 9.0 15.0 0.00 0.00 0.00 92 1013.1
20260903202404 63 270 8.0 15.0 0.00 0.00 0.00 93 1013.2
20260903201803 63 268 8.0 12.0 0.00 0.00 0.00 93 1013.3
20260903201203 63 267 7.0 12.0 0.00 0.00 0.00 92 1013.3
20260903200603 63 270 6.0 12.0 0.00 0.00 0.00 93 1013.3
20260903200004 63 269 8.0 13.0 0.00 0.00 0.00 93 1013.3
20260903195404 62 268 8.0 13.0 0.00 0.00 0.00 93 1013.5
20260903194803 62 269 8.0 13.0 0.00 0.00 0.00 93 1013.5
20260903194203 62 271 8.0 14.0 0.00 0.00 0.00 93 1013.5
20260903193603 62 273 8.0 14.0 0.00 0.00 0.00 93 1013.6
20260903192403 62 270 8.0 15.0 0.00 0.00 0.00 94 1013.8
20260903191803 62 273 7.0 15.0 0.00 0.00 0.00 93 1013.7
20260903191203 62 271 7.0 12.0 0.00 0.00 0.00 94 1013.9
20260903190603 62 273 8.0 14.0 0.00 0.00 0.00 93 1013.9
20260903190003 62 271 8.0 14.0 0.00 0.00 0.00 93 1013.9
20260903185403 62 273 7.0 13.0 0.00 0.00 0.00 92 1013.9
20260903184803 62 272 9.0 16.0 0.00 0.00 0.00 92 1014.0
20260903184203 63 271 9.0 16.0 0.00 0.00 0.00 91 1014.0
20260903183603 63 271 9.0 16.0 0.00 0.00 0.00 91 1013.9
20260903183004 63 271 9.0 16.0 0.00 0.00 0.00 91 1014.0
20260903182404 63 269 9.0 14.0 0.00 0.00 0.00 90 1014.0
20260903181804 63 267 9.0 15.0 0.00 0.00 0.00 90 1014.0
20260903181204 63 268 11.0 19.0 0.00 0.00 0.00 91 1014.0
20260903180604 63 269 11.0 19.0 0.00 0.00 0.00 91 1013.9
20260903180004 63 268 11.0 19.0 0.00 0.00 0.00 90 1013.8
20260903175404 63 267 12.0 19.0 0.00 0.00 0.00 90 1013.8
20260903174803 63 268 13.0 19.0 0.00 0.00 0.00 90 1013.7
20260903174204 63 269 12.0 19.0 0.00 0.00 0.00 90 1013.6
20260903173604 63 267 12.0 19.0 0.00 0.00 0.00 89 1013.7
20260903173003 63 270 12.0 19.0 0.00 0.00 0.00 89 1013.7
20260903172403 64 270 11.0 17.0 0.00 0.00 0.00 88 1013.8
20260903171803 63 270 9.0 15.0 0.00 0.00 0.00 91 1013.7
20260903171203 62 270 9.0 14.0 0.00 0.00 0.00 92 1013.9
20260903170603 62 271 10.0 14.0 0.00 0.00 0.00 91 1013.9
20260903165403 62 271 10.0 16.0 0.00 0.01 0.00 91 1013.9
20260903164803 62 270 10.0 16.0 0.00 0.01 0.00 92 1014.1
20260903164203 62 268 11.0 16.0 0.00 0.03 0.00 91 1014.0
20260903163603 62 268 11.0 17.0 0.00 0.03 0.00 92 1014.0
20260903163003 61 269 10.0 17.0 0.00 0.03 0.00 92 1014.0
20260903162403 61 270 9.0 15.0 0.00 0.03 0.00 92 1014.1
20260903161804 61 268 8.0 14.0 0.00 0.03 0.00 92 1014.3
20260903161204 61 271 9.0 15.0 0.00 0.03 0.00 92 1014.3
20260903160604 61 270 9.0 15.0 0.00 0.03 0.00 92 1014.3
20260903160004 61 271 8.0 12.0 0.00 0.03 0.00 93 1014.2
20260903155404 61 272 7.0 12.0 0.00 0.03 0.00 93 1014.3
20260903154803 60 273 7.0 14.0 0.00 0.03 0.00 93 1014.3
20260903153603 60 271 7.0 11.0 0.00 0.03 0.00 94 1014.4
20260903153004 60 273 7.0 11.0 0.00 0.03 0.00 94 1014.3
20260903152403 60 272 7.0 12.0 0.00 0.03 0.00 94 1014.3
20260903151803 60 272 7.0 12.0 0.00 0.03 0.00 95 1014.3
20260903151203 60 271 7.0 10.0 0.00 0.03 0.00 95 1014.3
20260903150603 60 273 7.0 11.0 0.00 0.03 0.00 95 1014.2
20260903150003 60 273 7.0 11.0 0.00 0.03 0.00 96 1014.1
20260903145403 60 271 8.0 13.0 0.00 0.03 0.00 96 1014.1
20260903144803 60 270 8.0 13.0 0.00 0.03 0.00 96 1014.1
20260903144203 60 269 7.0 13.0 0.00 0.03 0.00 97 1014.1
20260903143603 60 270 7.0 13.0 0.00 0.03 0.00 97 1014.1
20260903143003 59 270 7.0 12.0 0.00 0.03 0.00 97 1014.1
20260903142403 59 270 6.0 10.0 0.00 0.03 0.00 98 1014.1
20260903141803 59 271 6.0 11.0 0.00 0.03 0.00 98 1014.0
20260903141203 59 271 7.0 11.0 0.00 0.03 0.00 98 1014.0
20260903140603 59 271 7.0 13.0 0.00 0.03 0.00 98 1014.0
20260903140004 59 272 7.0 10.0 0.00 0.03 0.00 98 1014.0
20260903135404 59 272 8.0 11.0 0.00 0.03 0.00 98 1014.1
20260903134804 59 271 7.0 11.0 0.00 0.03 0.00 98 1014.0
20260903134204 59 270 6.0 10.0 0.00 0.03 0.00 98 1014.0
20260903133603 59 271 6.0 10.0 0.00 0.03 0.00 98 1014.0
20260903133003 59 272 6.0 11.0 0.00 0.03 0.00 98 1014.0
20260903132403 59 273 6.0 11.0 0.00 0.03 0.00 98 1014.0
20260903131803 59 273 5.0 10.0 0.00 0.03 0.00 98 1014.0
20260903131203 59 271 4.0 9.0 0.00 0.03 0.00 98 1014.0
20260903130603 59 273 5.0 10.0 0.00 0.03 0.00 98 1014.1
20260903130004 59 273 5.0 10.0 0.00 0.03 0.00 98 1014.1
20260903125403 59 271 4.0 8.0 0.00 0.03 0.00 98 1014.1
20260903124803 59 274 4.0 8.0 0.00 0.03 0.00 98 1014.0
20260903124203 59 274 4.0 8.0 0.00 0.03 0.00 98 1014.1
20260903123603 59 273 4.0 8.0 0.00 0.03 0.00 98 1014.1
20260903123003 59 273 4.0 9.0 0.00 0.03 0.00 98 1014.2
20260903122403 59 275 4.0 9.0 0.00 0.03 0.00 98 1014.1
20260903121803 59 273 3.0 7.0 0.00 0.03 0.00 98 1014.2
20260903121203 59 272 3.0 6.0 0.00 0.03 0.00 98 1014.3
20260903120603 59 271 3.0 7.0 0.00 0.03 0.00 98 1014.3
20260903120003 59 272 3.0 8.0 0.00 0.03 0.00 98 1014.3
20260903115403 59 272 3.0 6.0 0.00 0.03 0.00 98 1014.4
20260903114803 59 271 3.0 6.0 0.00 0.03 0.00 98 1014.5
20260903114203 59 274 3.0 8.0 0.00 0.03 0.00 98 1014.5
20260903113604 59 275 3.0 7.0 0.00 0.03 0.00 98 1014.6
20260903113004 59 272 3.0 6.0 0.00 0.03 0.00 97 1014.5
20260903112404 59 272 3.0 6.0 0.00 0.03 0.00 97 1014.6
20260903111804 59 270 3.0 6.0 0.00 0.03 0.00 97 1014.7
20260903111204 60 268 3.0 6.0 0.00 0.03 0.00 97 1014.8
20260903110604 60 268 2.0 6.0 0.00 0.03 0.00 97 1014.8
20260903110004 60 269 3.0 4.0 0.00 0.03 0.00 97 1014.8
20260903105403 60 272 3.0 6.0 0.00 0.03 0.00 97 1014.9
20260903104806 60 275 3.0 7.0 0.00 0.03 0.00 97 1014.9
20260903104203 60 272 3.0 7.0 0.00 0.03 0.00 97 1014.9
20260903103603 60 270 3.0 6.0 0.00 0.03 0.00 97 1015.0
20260903103003 60 273 3.0 6.0 0.00 0.03 0.00 96 1014.9
20260903102403 60 270 3.0 6.0 0.00 0.03 0.00 96 1015.0
20260903101803 60 265 2.0 4.0 0.00 0.03 0.00 96 1014.9
20260903101203 60 267 3.0 7.0 0.00 0.03 0.00 96 1014.9
20260903100603 60 271 4.0 7.0 0.00 0.03 0.00 96 1015.0
20260903100003 60 270 3.0 7.0 0.00 0.03 0.00 96 1015.0